STARLINK-34534, 64763

Orbit data source: Space-Track

STARLINK-34534, 64763 is a payload satellite owned by SpaceX/Seattle (US) in LEO that was launched on Tue, 08 Jul 2025 UTC via an FALCON 9 launch vehicle from the Air Force Eastern Test Range (AFETR). Payload-class satellites include a variety of spacecraft equipped with specific instruments for various scientific and technological missions. These include communications satellites like Starlink; space stations such as the ISS; scientific satellites like the Hubble; Earth observation satellites from companies like Planet Labs, Umbra, and HawkEye 360; GPS; miniature CubeSats for education and research; and military/defense satellites.

Loading next visibility...
Identifier
64763, 2025-147J
Orbit
LEO
Country
Flag of USUS
Related business
Manufacturer
SpaceX/Seattle
Mission
Operational Commercial Communications
Bus & Motor
STARLINK V2MO, Unknown motor
Mass
575 kg wet, ~530 kg dry
Launch date (UTC)
2025-07-08 (11 months ago)
Launch vehicle
FALCON 9
Launch site
Air Force Eastern Test Range (AFETR)
Object type
Payload
Rocket body
Debris
Shape & HBR
Box + 2 Pan, 17.7 m
Radar Cross Section
36.964 m², Large (>1 m²)

Expand to show TLE details & history
Last TLE update: 16 hours ago

TLE from 16 hours ago
0 STARLINK-34534
1 64763U 25147J   26171.19200947  .00020782  00000-0  62427-3 0  9997
2 64763  53.1585 125.3420 0001002  82.7735 277.3382 15.34411511 54464
Epoch: 2026-06-20T04:36Z
TLE epoch observation values (Epoch: 2026-06-20T04:36:29.618Z)
Latitude
0.00004°
Longitude
147.80845°
Altitude
463.483 km
Speed
7.636 km/s
True Right ascension
08h 21m 22s
True Declination
0° 00' 00"
Sunlit
Object was in daylight at epoch
Visualization orbit readout
Latitude
Unknown
Longitude
Unknown
Altitude
Unknown
Speed
Unknown
Apparent Right ascension
Unknown
Apparent Declination
Unknown
Sunlit
N/A
Visualization observer readout
Local Sidereal Time
07:21:43
Azimuth
Unknown
Elevation
Unknown
Doppler factor
Unknown
Orbital elements
Apogee altitude
463.612 km
Perigee altitude
462.241 km
Semi-major axis
6,841.063 km
Eccentricity
0.0001
Inclination
53.1585°
RAAN
125.342°
Arg. of periapsis
82.7735°
True anomaly
277.32681°
Mean anomaly
277.3382°
Eccentric anomaly
277.33251°
Mean motion
3.83582 °/min
Orbital period
93.85 mins
BSTAR
0.00062427
Loading maneuver chart data...
Computing Atmospheric mass density...
Loading historical data...
Loading historical data...
Loading historical data...
Loading historical data...
Loading historical data...
Loading historical data...
Loading historical data...

Documentation

Showing up to 5 results
|